Regional Weather Roundup
Issued by NWS Upton, NY

Current Version | Previous Version | Text Only | Print | Product List | Glossary On
Versions: 1 2 3 4 5 6 7 8 9 10 11 12 13 14 15 16 17 18 19 20 21 22 23 24 25 26 27 28 29 30 31 32 33 34 35 36 37 38 39 40 41 42 43 44 45 46 47 48 49 50
000
ASUS41 KOKX 191805
RWROKX

REGIONAL WEATHER ROUNDUP
NATIONAL WEATHER SERVICE NEW YORK NY
200 PM EDT FRI SEP 19 2014

NOTE: "FAIR" INDICATES FEW OR NO CLOUDS BELOW 12,000 FEET WITH NO
SIGNIFICANT WEATHER AND/OR OBSTRUCTIONS TO VISIBILITY.

NYZ071-072-176-178-NJZ106-104-191900-
NEW YORK CITY METRO AREA


CITY           SKY/WX    TMP DP  RH WIND       PRES   REMARKS
CENTRAL PARK   MOSUNNY   64  43  46 VRB7      30.38S
LAGUARDIA APRT MOSUNNY   62  44  51 NE13      30.35S
KENNEDY INTL   PTSUNNY   66  44  45 E6        30.35S
NEWARK/LIBERTY MOSUNNY   65  46  50 NE13      30.35S
BRNX BOT. GARD   N/A     61  41  48 N17       30.36F
TETERBORO      SUNNY     62  42  47 CALM      30.34S
$$

NYZ177-179-078>081-191900-
LONG ISLAND NEW YORK

CITY           SKY/WX    TMP DP  RH WIND       PRES   REMARKS
FARMINGDALE    MOSUNNY   65  44  46 E8G17     30.35S
ISLIP          MOSUNNY   64  43  46 N12G17    30.33F
SHIRLEY        MOSUNNY   63  42  46 VRB5      30.36R
WESTHAMPTON    MOSUNNY   64  41  42 E13G18    30.37R
MONTAUK POINT    N/A     61  41  47 NE9       30.38R
$$

NYZ052-065-067-191900-
HUDSON VALLEY

CITY           SKY/WX    TMP DP  RH WIND       PRES   REMARKS
WHITE PLAINS   MOSUNNY   61  40  45 S8        30.35S
NEWBURGH       MOSUNNY   61  45  55 E12       30.36F
MONTGOMERY     SUNNY     63  42  46 VRB6      30.34F
POUGHKEEPSIE   SUNNY     63  40  42 VRB6      30.34F
ALBANY         MOSUNNY   58  35  42 NE6       30.38F
$$

NJZ001-105-106-008-010-013-015-019>022-104-191900-
NEW JERSEY

CITY           SKY/WX    TMP DP  RH WIND       PRES   REMARKS
NEWARK/LIBERTY MOSUNNY   65  46  50 NE13      30.35S
TETERBORO      SUNNY     62  42  47 CALM      30.34S
CALDWELL       SUNNY     65  42  43 E7        30.34F
MORRISTOWN     PTSUNNY   64  45  48 SE9       30.34S
SOMERVILLE     SUNNY     67  44  43 E6        30.32S
LINDEN         MOCLDY    69  48  46 SE9       30.36S
SUSSEX         CLOUDY    65  45  48 VRB5      30.34S
ANDOVER          N/A     65  45  48 CALM      30.33F
TRENTON        SUNNY     66  47  50 VRB7      30.32S
MILLVILLE      MOSUNNY   71  54  54 E13       30.29S
ATLANTIC CITY  CLOUDY    67  56  67 NE15      30.30S
WRIGHTSTOWN    CLOUDY    65  52  62 NE9G16    30.30S
TOMS RIVER     CLOUDY    63  52  67 NE5       30.34R
BELMAR         CLOUDY    63  46  55 E13       30.33F
$$

PAZ047>061-062-071-191900-
EASTERN PENNSYLVANIA

CITY           SKY/WX    TMP DP  RH WIND       PRES   REMARKS
PHILADELPHIA   PTSUNNY   70  52  52 E8        30.31F
ALLENTOWN      PTSUNNY   67  49  52 VRB5      30.32F
SCRANTON       SUNNY     67  44  43 W5        30.30F
$$

CTZ002-004>006-009-010-012-RIZ004-006-007-MAZ004-011-015-191900-
SOUTHERN NEW ENGLAND
 IN CT

CITY           SKY/WX    TMP DP  RH WIND       PRES   REMARKS
BRADLEY INTL   MOSUNNY   62  32  32 VRB6      30.37S
HARTFORD       SUNNY     60  36  40 VRB7      30.37S
DANBURY        SUNNY     59  39  47 E5        30.37S
WTRBRY/OXFORD  SUNNY     59  37  44 VRB5      30.37S
BRIDGEPORT     MOSUNNY   61  41  47 SE9       30.36S
MERIDEN        SUNNY     63  34  33 NE6       30.37S
NEW HAVEN      MOSUNNY   63  40  42 S8        30.37R
CHESTER        FAIR      59  36  41 E5        30.37S
GROTON         SUNNY     63  36  36 MISG      30.36S
WILLIMANTIC    SUNNY     60  32  34 NW6       30.37S

 IN RI

CITY           SKY/WX    TMP DP  RH WIND       PRES   REMARKS
PROVIDENCE     MOSUNNY   61  34  36 NE8       30.38S
BLOCK ISLAND   SUNNY     61  37  41 NE13      30.37S
WESTERLY       SUNNY     62  35  36 E6        30.36F

 IN MA

CITY           SKY/WX    TMP DP  RH WIND       PRES   REMARKS
BOSTON         MOSUNNY   56  35  45 E13       30.41R
WORCESTER      SUNNY     53  32  44 E7        30.38S
WESTFIELD      SUNNY     59  32  36 VRB3      30.38S
PROVINCETOWN   MOSUNNY   57  37  47 NE14G21   30.40R
NANTUCKET      MOSUNNY   60  38  43 NE18G24   30.35S
$$

ANZ330-335-338-340-345-350-353-355-191900-
COASTAL MARINE OBSERVATIONS


STATION/POSITION TIME  SKY/WX   TEMP    WIND        PRES    VSBY  WAVE
                                AIR SEA DIR/SP/G                  HT/PER
                 (UTC)          (F)     (DEG/KT/KT) (MB)    (MI)  (FT/S)
NY HARB ENTRANCE 1800            60 70   70/ 16/ 17 1027.7          4/ 5
4S FIRE IS       1800               70                N/A           4/ 5
20S FIRE ISLAND  1800            60 68   60/ 17/ 21 1027.4          5/ 6
23SW MTP         1800                                 N/A           5/ 6
HUDSON CANYON    1800            66 72   60/ 19/ 23 1025.0          6/ 7
EXECUTION ROCKS  1800            60 70   70/ 12/ 17   N/A
WESTERN LI SOUND 1800            58      90/ 10/ 14   N/A           2/ 5
CENTRAL LI SOUND 1700            57 70   70/  6/ 10   N/A           1/ 4
EASTERN LI SOUND 1700            58 68   90/  6/ 10   N/A
ROBBINS REEF     1800            61      50/ 10/ 12 1026.2
$$


>>>>>>>>>>>>>>>>>>>>>>>>>>>> KEY <<<<<<<<<<<<<<<<<<<<<<<<<<<
>                                                          <
>     SKY/WX - SKY CONDITION/PRESENT WEATHER               <
>     TMP    - TEMPERATURE IN FAHRENHEIT                   <
>     DP     - DEWPOINT IN FAHRENHEIT                      <
>     RH     - RELATIVE HUMIDITY IN PERCENT                <
>     WIND   - DIRECTION AND SPEED IN MPH                  <
>     PRES   - MEAN SEA LEVEL PRESSURE IN INCHES OF HG     <
>     WCI    - WIND CHILL INDEX                            <
>     VSB    - VISIBILITY IN MILES                         <
>     HX     - HEAT INDEX                                  <
>     TC     - TEMPERATURE IN CELSIUS                      <
>     VRB    - VARIABLE WIND DIRECTION                     <
>                                                          <
>>>>>>>>>>>>>>>>>>>>>>>>>>>> KEY <<<<<<<<<<<<<<<<<<<<<<<<<<<





USA.gov is the U.S. government's official web portal to all federal, state and local government web resources and services.